TimeEDT,TemperatureF,Dew PointF,Humidity,Sea Level PressureIn,VisibilityMPH,Wind Direction,Wind SpeedMPH,Gust SpeedMPH,PrecipitationIn,Events,Conditions,WindDirDegrees,DateUTC
12:15 AM,55.4,55.4,100,30.24,10.0,Calm,Calm,-,N/A,,Clear,0,2012-10-12 04:15:00
12:35 AM,55.4,55.4,100,30.23,10.0,Calm,Calm,-,N/A,,Clear,0,2012-10-12 04:35:00
4:55 AM,51.8,51.8,100,30.19,10.0,Calm,Calm,-,N/A,,Clear,0,2012-10-12 08:55:00
5:15 AM,51.8,51.8,100,30.19,10.0,Calm,Calm,-,N/A,,Clear,0,2012-10-12 09:15:00
5:35 AM,51.8,51.8,100,30.20,10.0,Calm,Calm,-,N/A,,Clear,0,2012-10-12 09:35:00
5:55 AM,51.8,51.8,100,30.21,10.0,Calm,Calm,-,N/A,,Clear,0,2012-10-12 09:55:00
6:15 AM,51.8,51.8,100,30.21,10.0,Calm,Calm,-,N/A,,Clear,0,2012-10-12 10:15:00
6:35 AM,51.8,51.8,100,30.22,10.0,Calm,Calm,-,N/A,,Clear,0,2012-10-12 10:35:00
6:55 AM,51.8,51.8,100,30.22,10.0,Calm,Calm,-,N/A,,Clear,0,2012-10-12 10:55:00
7:15 AM,51.8,51.8,100,30.21,10.0,Calm,Calm,-,N/A,,Clear,0,2012-10-12 11:15:00
7:35 AM,51.8,51.8,100,30.21,10.0,Calm,Calm,-,N/A,,Mostly Cloudy,0,2012-10-12 11:35:00
7:55 AM,53.6,53.6,100,30.22,10.0,Calm,Calm,-,N/A,,Overcast,0,2012-10-12 11:55:00
8:15 AM,55.4,55.4,100,30.23,10.0,Calm,Calm,-,N/A,,Mostly Cloudy,0,2012-10-12 12:15:00
8:35 AM,55.4,55.4,100,30.23,10.0,Calm,Calm,-,N/A,,Scattered Clouds,0,2012-10-12 12:35:00
8:55 AM,59.0,59.0,100,30.24,10.0,Calm,Calm,-,N/A,,Clear,0,2012-10-12 12:55:00
9:15 AM,60.8,60.8,100,30.25,10.0,Calm,Calm,-,N/A,,Clear,0,2012-10-12 13:15:00
9:35 AM,64.4,62.6,94,30.25,10.0,Calm,Calm,-,N/A,,Clear,0,2012-10-12 13:35:00
9:55 AM,68.0,60.8,78,30.25,10.0,Calm,Calm,-,N/A,,Clear,0,2012-10-12 13:55:00
10:15 AM,71.6,60.8,69,30.25,10.0,West,3.5,-,N/A,,Clear,280,2012-10-12 14:15:00
10:55 AM,73.4,60.8,65,30.24,10.0,Calm,Calm,-,N/A,,Clear,0,2012-10-12 14:55:00
11:15 AM,77.0,57.2,50,30.24,10.0,NNW,3.5,-,N/A,,Clear,340,2012-10-12 15:15:00
11:35 AM,78.8,55.4,44,30.24,10.0,North,6.9,-,N/A,,Clear,350,2012-10-12 15:35:00
12:15 PM,78.8,55.4,44,30.22,10.0,North,6.9,-,N/A,,Clear,360,2012-10-12 16:15:00
12:35 PM,80.6,55.4,42,30.22,10.0,WNW,8.1,-,N/A,,Clear,300,2012-10-12 16:35:00
12:55 PM,80.6,57.2,45,30.22,10.0,WNW,8.1,-,N/A,,Clear,300,2012-10-12 16:55:00
1:15 PM,80.6,57.2,45,30.20,10.0,North,6.9,-,N/A,,Clear,360,2012-10-12 17:15:00
1:55 PM,80.6,59.0,48,30.18,10.0,WNW,8.1,-,N/A,,Clear,300,2012-10-12 17:55:00
2:35 PM,82.4,59.0,45,30.15,10.0,NW,6.9,-,N/A,,Clear,320,2012-10-12 18:35:00
4:15 PM,84.2,60.8,45,30.14,10.0,WNW,5.8,-,N/A,,Clear,300,2012-10-12 20:15:00
4:55 PM,82.4,60.8,48,30.15,10.0,NW,6.9,-,N/A,,Scattered Clouds,310,2012-10-12 20:55:00
5:15 PM,82.4,60.8,48,30.14,10.0,NNW,4.6,-,N/A,,Scattered Clouds,340,2012-10-12 21:15:00
5:35 PM,82.4,60.8,48,30.14,10.0,West,4.6,-,N/A,,Scattered Clouds,270,2012-10-12 21:35:00
5:55 PM,80.6,60.8,51,30.15,10.0,NNE,3.5,-,N/A,,Scattered Clouds,30,2012-10-12 21:55:00
6:15 PM,80.6,62.6,54,30.15,10.0,Calm,Calm,-,N/A,,Clear,0,2012-10-12 22:15:00
6:35 PM,77.0,62.6,61,30.15,10.0,Calm,Calm,-,N/A,,Clear,0,2012-10-12 22:35:00
7:15 PM,71.6,64.4,78,30.16,10.0,Calm,Calm,-,N/A,,Clear,0,2012-10-12 23:15:00
7:55 PM,69.8,64.4,83,30.16,10.0,Calm,Calm,-,N/A,,Scattered Clouds,0,2012-10-12 23:55:00
8:15 PM,68.0,62.6,83,30.17,10.0,Calm,Calm,-,N/A,,Scattered Clouds,0,2012-10-13 00:15:00
8:35 PM,68.0,64.4,88,30.18,10.0,Calm,Calm,-,N/A,,Mostly Cloudy,0,2012-10-13 00:35:00
9:15 PM,69.8,62.6,78,30.20,10.0,Calm,Calm,-,N/A,,Mostly Cloudy,0,2012-10-13 01:15:00
9:35 PM,71.6,62.6,73,30.21,10.0,ESE,3.5,-,N/A,,Mostly Cloudy,110,2012-10-13 01:35:00
9:55 PM,71.6,62.6,73,30.21,10.0,Calm,Calm,-,N/A,,Mostly Cloudy,0,2012-10-13 01:55:00
10:15 PM,69.8,62.6,78,30.22,10.0,Calm,Calm,-,N/A,,Mostly Cloudy,0,2012-10-13 02:15:00
10:35 PM,69.8,62.6,78,30.23,10.0,East,3.5,-,N/A,,Mostly Cloudy,90,2012-10-13 02:35:00
10:55 PM,68.0,62.6,83,30.23,10.0,Calm,Calm,-,N/A,,Scattered Clouds,0,2012-10-13 02:55:00
11:15 PM,68.0,62.6,83,30.24,10.0,Calm,Calm,-,N/A,,Scattered Clouds,0,2012-10-13 03:15:00
11:35 PM,66.2,62.6,88,30.24,10.0,Calm,Calm,-,N/A,,Clear,0,2012-10-13 03:35:00